Time,TemperatureF,DewpointF,PressureIn,WindDirection,WindDirectionDegrees,WindSpeedMPH,WindSpeedGustMPH,Humidity,HourlyPrecipIn,Conditions,Clouds,dailyrainin,SoftwareType,DateUTC
2013-03-17 00:11:00,35.9,28.0,29.86,SW,234,9.0,-999.0,74,-99.99,,,0.00,weatherlink.com 1.10,2013-03-17 04:11:00,
2013-03-17 00:26:00,35.5,28.0,29.86,WSW,238,10.0,-999.0,73,-99.99,,,0.00,weatherlink.com 1.10,2013-03-17 04:26:00,
2013-03-17 00:41:00,35.1,27.0,29.86,WSW,250,8.0,-999.0,73,-99.99,,,0.00,weatherlink.com 1.10,2013-03-17 04:41:00,
2013-03-17 00:56:00,34.7,27.0,29.86,WSW,257,11.0,-999.0,73,-99.99,,,0.00,weatherlink.com 1.10,2013-03-17 04:56:00,
2013-03-17 01:11:00,34.6,26.0,29.87,WSW,244,8.0,-999.0,72,-99.99,,,0.00,weatherlink.com 1.10,2013-03-17 05:11:00,
2013-03-17 01:26:00,34.3,26.0,29.87,WSW,253,7.0,-999.0,72,-99.99,,,0.00,weatherlink.com 1.10,2013-03-17 05:26:00,
2013-03-17 01:41:00,34.1,26.0,29.86,SW,227,11.0,-999.0,72,-99.99,,,0.00,weatherlink.com 1.10,2013-03-17 05:41:00,
2013-03-17 01:56:00,33.9,26.0,29.86,SW,227,12.0,-999.0,72,-99.99,,,0.00,weatherlink.com 1.10,2013-03-17 05:56:00,
2013-03-17 02:12:00,33.7,26.0,29.87,SW,226,9.0,-999.0,72,-99.99,,,0.00,weatherlink.com 1.10,2013-03-17 06:12:00,
2013-03-17 02:30:00,33.4,25.0,29.87,WSW,238,12.0,-999.0,72,-99.99,,,0.00,weatherlink.com 1.10,2013-03-17 06:30:00,
2013-03-17 02:41:00,33.2,25.0,29.86,SW,228,13.0,-999.0,72,-99.99,,,0.00,weatherlink.com 1.10,2013-03-17 06:41:00,
2013-03-17 02:57:00,33.1,25.0,29.86,WSW,257,14.0,-999.0,71,-99.99,,,0.00,weatherlink.com 1.10,2013-03-17 06:57:00,
2013-03-17 03:12:00,32.8,24.0,29.86,SW,219,18.0,-999.0,71,-99.99,,,0.00,weatherlink.com 1.10,2013-03-17 07:12:00,
2013-03-17 03:27:00,32.5,24.0,29.86,WSW,241,16.0,-999.0,71,-99.99,,,0.00,weatherlink.com 1.10,2013-03-17 07:27:00,
2013-03-17 03:42:00,32.5,24.0,29.86,SW,235,19.0,-999.0,72,-99.99,,,0.00,weatherlink.com 1.10,2013-03-17 07:42:00,
2013-03-17 03:57:00,32.8,28.0,29.85,SW,223,13.0,-999.0,81,-99.99,,,0.00,weatherlink.com 1.10,2013-03-17 07:57:00,
2013-03-17 04:12:00,32.8,30.0,29.84,WNW,301,7.0,-999.0,90,-99.99,,,0.00,weatherlink.com 1.10,2013-03-17 08:12:00,
2013-03-17 04:27:00,32.9,31.0,29.84,WSW,257,10.0,-999.0,92,-99.99,,,0.00,weatherlink.com 1.10,2013-03-17 08:27:00,
2013-03-17 04:42:00,32.6,31.0,29.84,West,273,16.0,-999.0,92,-99.99,,,0.00,weatherlink.com 1.10,2013-03-17 08:42:00,
2013-03-17 04:57:00,32.4,30.0,29.84,WNW,287,4.0,-999.0,92,-99.99,,,0.00,weatherlink.com 1.10,2013-03-17 08:57:00,
2013-03-17 05:12:00,32.4,30.0,29.85,WSW,246,13.0,-999.0,92,-99.99,,,0.00,weatherlink.com 1.10,2013-03-17 09:12:00,
2013-03-17 05:27:00,32.5,31.0,29.86,WSW,255,14.0,-999.0,92,-99.99,,,0.00,weatherlink.com 1.10,2013-03-17 09:27:00,
2013-03-17 05:44:00,32.1,29.0,29.86,WNW,284,12.0,-999.0,89,-99.99,,,0.00,weatherlink.com 1.10,2013-03-17 09:44:00,
2013-03-17 05:57:00,32.0,29.0,29.87,West,266,13.0,-999.0,89,-99.99,,,0.00,weatherlink.com 1.10,2013-03-17 09:57:00,
2013-03-17 06:12:00,32.0,29.0,29.88,West,261,7.0,-999.0,89,-99.99,,,0.00,weatherlink.com 1.10,2013-03-17 10:12:00,
2013-03-17 06:27:00,31.7,28.0,29.89,SW,234,9.0,-999.0,85,-99.99,,,0.00,weatherlink.com 1.10,2013-03-17 10:27:00,
2013-03-17 06:42:00,31.6,27.0,29.90,SW,234,6.0,-999.0,82,-99.99,,,0.00,weatherlink.com 1.10,2013-03-17 10:42:00,
2013-03-17 06:57:00,31.6,26.0,29.90,WSW,248,7.0,-999.0,79,-99.99,,,0.00,weatherlink.com 1.10,2013-03-17 10:57:00,
2013-03-17 07:12:00,31.5,25.0,29.91,SW,236,8.0,-999.0,78,-99.99,,,0.00,weatherlink.com 1.10,2013-03-17 11:12:00,
2013-03-17 07:27:00,31.5,25.0,29.92,West,266,7.0,-999.0,76,-99.99,,,0.00,weatherlink.com 1.10,2013-03-17 11:27:00,
2013-03-17 07:42:00,31.4,25.0,29.91,WNW,302,5.0,-999.0,76,-99.99,,,0.00,weatherlink.com 1.10,2013-03-17 11:42:00,
2013-03-17 07:57:00,31.7,25.0,29.93,SW,220,5.0,-999.0,76,-99.99,,,0.00,weatherlink.com 1.10,2013-03-17 11:57:00,
2013-03-17 08:12:00,31.7,25.0,29.96,WSW,238,4.0,-999.0,77,-99.99,,,0.00,weatherlink.com 1.10,2013-03-17 12:12:00,
2013-03-17 08:27:00,31.6,25.0,29.97,SW,229,7.0,-999.0,76,-99.99,,,0.00,weatherlink.com 1.10,2013-03-17 12:27:00,
2013-03-17 08:42:00,31.7,24.0,29.98,SW,223,7.0,-999.0,74,-99.99,,,0.00,weatherlink.com 1.10,2013-03-17 12:42:00,
2013-03-17 08:57:00,31.6,24.0,29.99,WSW,252,11.0,-999.0,74,-99.99,,,0.00,weatherlink.com 1.10,2013-03-17 12:57:00,
2013-03-17 09:12:00,31.6,24.0,30.00,SW,231,6.0,-999.0,73,-99.99,,,0.00,weatherlink.com 1.10,2013-03-17 13:12:00,
2013-03-17 09:27:00,31.2,23.0,29.99,West,274,7.0,-999.0,73,-99.99,,,0.00,weatherlink.com 1.10,2013-03-17 13:27:00,
2013-03-17 09:42:00,31.1,23.0,29.99,WSW,245,7.0,-999.0,73,-99.99,,,0.00,weatherlink.com 1.10,2013-03-17 13:42:00,
2013-03-17 10:01:00,31.0,23.0,29.99,WSW,257,9.0,-999.0,73,-99.99,,,0.00,weatherlink.com 1.10,2013-03-17 14:01:00,
2013-03-17 10:12:00,31.0,23.0,29.98,West,271,1.0,-999.0,73,-99.99,,,0.00,weatherlink.com 1.10,2013-03-17 14:12:00,
2013-03-17 10:27:00,30.8,23.0,30.00,WSW,244,1.0,-999.0,73,-99.99,,,0.00,weatherlink.com 1.10,2013-03-17 14:27:00,
2013-03-17 10:42:00,30.8,23.0,30.02,SW,232,6.0,-999.0,73,-99.99,,,0.00,weatherlink.com 1.10,2013-03-17 14:42:00,
2013-03-17 10:57:00,30.6,23.0,30.02,SW,228,5.0,-999.0,73,-99.99,,,0.00,weatherlink.com 1.10,2013-03-17 14:57:00,
2013-03-17 11:12:00,30.3,23.0,30.01,SW,230,4.0,-999.0,74,-99.99,,,0.00,weatherlink.com 1.10,2013-03-17 15:12:00,
2013-03-17 11:27:00,30.3,23.0,30.02,SW,229,5.0,-999.0,74,-99.99,,,0.00,weatherlink.com 1.10,2013-03-17 15:27:00,
2013-03-17 11:42:00,30.2,23.0,30.02,SW,233,6.0,-999.0,74,-99.99,,,0.00,weatherlink.com 1.10,2013-03-17 15:42:00,
2013-03-17 11:57:00,30.2,23.0,30.02,SW,231,5.0,-999.0,74,-99.99,,,0.00,weatherlink.com 1.10,2013-03-17 15:57:00,
2013-03-17 12:12:00,30.3,23.0,30.02,WSW,240,3.0,-999.0,74,-99.99,,,0.00,weatherlink.com 1.10,2013-03-17 16:12:00,
2013-03-17 12:27:00,30.3,23.0,30.02,WNW,288,1.0,-999.0,74,-99.99,,,0.00,weatherlink.com 1.10,2013-03-17 16:27:00,
2013-03-17 12:42:00,30.6,23.0,30.02,NW,325,1.0,-999.0,74,-99.99,,,0.00,weatherlink.com 1.10,2013-03-17 16:42:00,
2013-03-17 12:57:00,31.1,24.0,30.02,NNE,19,0.0,-999.0,74,-99.99,,,0.00,weatherlink.com 1.10,2013-03-17 16:57:00,
2013-03-17 13:15:00,31.2,24.0,30.03,WSW,250,1.0,-999.0,74,-99.99,,,0.00,weatherlink.com 1.10,2013-03-17 17:15:00,
2013-03-17 13:29:00,31.1,24.0,30.03,WSW,250,2.0,-999.0,75,-99.99,,,0.00,weatherlink.com 1.10,2013-03-17 17:29:00,
2013-03-17 13:43:00,31.5,24.0,30.03,WSW,250,0.0,-999.0,74,-99.99,,,0.00,weatherlink.com 1.10,2013-03-17 17:43:00,
2013-03-17 13:58:00,31.7,24.0,30.03,WSW,257,0.0,-999.0,73,-99.99,,,0.00,weatherlink.com 1.10,2013-03-17 17:58:00,
2013-03-17 14:13:00,31.7,25.0,30.02,North,355,0.0,-999.0,75,-99.99,,,0.00,weatherlink.com 1.10,2013-03-17 18:13:00,
2013-03-17 14:28:00,31.5,25.0,30.02,West,261,0.0,-999.0,77,-99.99,,,0.00,weatherlink.com 1.10,2013-03-17 18:28:00,
2013-03-17 14:43:00,31.8,25.0,30.02,NE,55,0.0,-999.0,77,-99.99,,,0.00,weatherlink.com 1.10,2013-03-17 18:43:00,
2013-03-17 14:58:00,31.4,26.0,30.02,NW,310,0.0,-999.0,80,-99.99,,,0.00,weatherlink.com 1.10,2013-03-17 18:58:00,
2013-03-17 15:13:00,31.4,26.0,30.02,NE,34,1.0,-999.0,80,-99.99,,,0.00,weatherlink.com 1.10,2013-03-17 19:13:00,
2013-03-17 15:28:00,30.6,26.0,30.02,East,88,3.0,-999.0,84,-99.99,,,0.00,weatherlink.com 1.10,2013-03-17 19:28:00,
2013-03-17 15:43:00,30.4,26.0,30.02,ENE,78,1.0,-999.0,82,-99.99,,,0.00,weatherlink.com 1.10,2013-03-17 19:43:00,
2013-03-17 15:58:00,29.9,25.0,30.01,ENE,60,5.0,-999.0,83,-99.99,,,0.00,weatherlink.com 1.10,2013-03-17 19:58:00,
2013-03-17 16:13:00,30.2,25.0,30.02,East,82,4.0,-999.0,81,-99.99,,,0.00,weatherlink.com 1.10,2013-03-17 20:13:00,
2013-03-17 16:28:00,29.9,25.0,30.02,ENE,73,5.0,-999.0,81,-99.99,,,0.00,weatherlink.com 1.10,2013-03-17 20:28:00,
2013-03-17 16:43:00,29.5,24.0,30.03,ENE,63,5.0,-999.0,81,-99.99,,,0.00,weatherlink.com 1.10,2013-03-17 20:43:00,
2013-03-17 16:58:00,29.5,24.0,30.04,ENE,71,1.0,-999.0,81,-99.99,,,0.00,weatherlink.com 1.10,2013-03-17 20:58:00,
2013-03-17 17:13:00,29.6,24.0,30.04,ENE,57,1.0,-999.0,81,-99.99,,,0.00,weatherlink.com 1.10,2013-03-17 21:13:00,
2013-03-17 17:33:00,29.7,24.0,30.05,NE,48,2.0,-999.0,79,-99.99,,,0.00,weatherlink.com 1.10,2013-03-17 21:33:00,
2013-03-17 17:43:00,29.9,24.0,30.05,ENE,72,2.0,-999.0,78,-99.99,,,0.00,weatherlink.com 1.10,2013-03-17 21:43:00,
2013-03-17 17:58:00,30.0,24.0,30.05,ENE,78,4.0,-999.0,77,-99.99,,,0.00,weatherlink.com 1.10,2013-03-17 21:58:00,
2013-03-17 18:13:00,30.0,24.0,30.06,ENE,74,1.0,-999.0,77,-99.99,,,0.00,weatherlink.com 1.10,2013-03-17 22:13:00,
2013-03-17 18:28:00,29.9,23.0,30.06,ENE,73,4.0,-999.0,76,-99.99,,,0.00,weatherlink.com 1.10,2013-03-17 22:28:00,
2013-03-17 18:43:00,29.8,23.0,30.07,East,84,0.0,-999.0,76,-99.99,,,0.01,weatherlink.com 1.10,2013-03-17 22:43:00,
2013-03-17 18:58:00,29.6,23.0,30.05,ENE,68,11.0,-999.0,76,-99.99,,,0.01,weatherlink.com 1.10,2013-03-17 22:58:00,
2013-03-17 19:13:00,29.4,23.0,30.07,ENE,69,6.0,-999.0,77,-99.99,,,0.01,weatherlink.com 1.10,2013-03-17 23:13:00,
2013-03-17 19:28:00,29.4,23.0,30.08,ENE,63,3.0,-999.0,77,-99.99,,,0.01,weatherlink.com 1.10,2013-03-17 23:28:00,
2013-03-17 19:43:00,29.4,23.0,30.09,ENE,71,7.0,-999.0,77,-99.99,,,0.01,weatherlink.com 1.10,2013-03-17 23:43:00,
2013-03-17 19:58:00,29.5,23.0,30.07,ENE,58,11.0,-999.0,77,-99.99,,,0.01,weatherlink.com 1.10,2013-03-17 23:58:00,
2013-03-17 20:13:00,29.4,23.0,30.08,East,90,4.0,-999.0,77,-99.99,,,0.01,weatherlink.com 1.10,2013-03-18 00:13:00,
2013-03-17 20:28:00,29.4,23.0,30.08,ENE,63,14.0,-999.0,77,-99.99,,,0.01,weatherlink.com 1.10,2013-03-18 00:28:00,
2013-03-17 20:46:00,29.4,23.0,30.09,East,82,6.0,-999.0,77,-99.99,,,0.01,weatherlink.com 1.10,2013-03-18 00:46:00,
2013-03-17 20:58:00,29.4,23.0,30.09,East,97,7.0,-999.0,77,-99.99,,,0.01,weatherlink.com 1.10,2013-03-18 00:58:00,
2013-03-17 21:13:00,29.4,23.0,30.09,ENE,63,8.0,-999.0,77,-99.99,,,0.01,weatherlink.com 1.10,2013-03-18 01:13:00,
2013-03-17 21:28:00,29.4,23.0,30.09,ENE,76,7.0,-999.0,77,-99.99,,,0.01,weatherlink.com 1.10,2013-03-18 01:28:00,
2013-03-17 21:43:00,29.4,23.0,30.10,East,82,12.0,-999.0,77,-99.99,,,0.01,weatherlink.com 1.10,2013-03-18 01:43:00,
2013-03-17 21:58:00,29.4,23.0,30.11,ENE,59,10.0,-999.0,77,-99.99,,,0.01,weatherlink.com 1.10,2013-03-18 01:58:00,
2013-03-17 22:13:00,29.3,23.0,30.11,East,83,8.0,-999.0,77,-99.99,,,0.01,weatherlink.com 1.10,2013-03-18 02:13:00,
2013-03-17 22:28:00,29.1,23.0,30.11,ENE,60,7.0,-999.0,77,-99.99,,,0.01,weatherlink.com 1.10,2013-03-18 02:28:00,
2013-03-17 22:43:00,29.1,23.0,30.11,ENE,73,12.0,-999.0,78,-99.99,,,0.01,weatherlink.com 1.10,2013-03-18 02:43:00,
2013-03-17 22:58:00,29.4,23.0,30.11,ENE,57,11.0,-999.0,77,-99.99,,,0.01,weatherlink.com 1.10,2013-03-18 02:58:00,
2013-03-17 23:13:00,29.5,23.0,30.11,ENE,64,7.0,-999.0,76,-99.99,,,0.01,weatherlink.com 1.10,2013-03-18 03:13:00,
2013-03-17 23:28:00,29.3,23.0,30.10,ENE,67,12.0,-999.0,77,-99.99,,,0.01,weatherlink.com 1.10,2013-03-18 03:28:00,
2013-03-17 23:43:00,29.2,23.0,30.11,ENE,63,5.0,-999.0,77,-99.99,,,0.01,weatherlink.com 1.10,2013-03-18 03:43:00,
2013-03-17 23:59:00,29.1,23.0,30.11,ENE,71,13.0,-999.0,77,-99.99,,,0.01,weatherlink.com 1.10,2013-03-18 03:59:00,